Flag for Germany Weather past 2 weeks in Saalfeld/Saale, Thuringia, Germany

Now
30 °F

Sunny.


Feels Like: 20 °F
Forecast: 20 / 27 °F
Wind: 13 mph from Southeast

Location: Erfurt-Bindersleben

Current Time: Dec 27, 2014 at 3:24:38 PM

Latest Report: Dec 27, 2014 at 2:50 PM


Visibility: 10 mi

Pressure: 29.59 "Hg

Humidity: 59%

Dew point: 18 °F

Location of Saalfeld/SaaleLocation

Historic Weather in Saalfeld/Saale — Graph

°F

Saalfeld/Saale temperature yesterday

Maximum temperature yesterday: 36 °F (at 12:20 PM)
Minimum temperature yesterday: 23 °F (at 9:50 PM)
Average temperature yesterday: 31 °F

Past Weeks' High & Low Weather Summary

 TemperatureHumidityPressure
High54 °F (Dec 18, 8:20 PM)100% (Dec 13, 5:50 AM)30.36 "Hg (Dec 13, 5:50 AM)
Low23 °F (Dec 26, 9:50 PM)55% (Dec 27, 12:20 PM)29.47 "Hg (Dec 12, 5:50 PM)
Average40 °F87%29.96 "Hg
* Reported Dec 12 2:20 PM — Dec 27 2:20 PM, Saalfeld/Saale, Weather by CustomWeather, © 2014

Note: Actual official high and low records may vary slightly from our data, if they occured in-between our weather recording intervals... More about our weather records

Advertising

Saalfeld/Saale weather history for previous 24 hours

 ConditionsComfort  
Time TempWeatherWind HumidityBarometerVisibility
2:20 PM
Dec 27
30 °FSunny.12 mph59%29.59 "Hg10 mi
1:50 PM30 °FSunny.13 mph55%29.59 "Hg10 mi
1:20 PM30 °FSunny.8 mph55%29.62 "Hg10 mi
12:50 PM30 °FSunny.13 mph55%29.62 "Hg10 mi
12:20 PM30 °FSunny.15 mph55%29.62 "Hg10 mi
11:50 AM30 °FSunny.12 mph69%29.65 "Hg10 mi
11:20 AM30 °FSunny.9 mph69%29.65 "Hg10 mi
10:50 AM28 °FSunny.9 mph80%29.68 "Hg10 mi
10:20 AM30 °FSunny.14 mph75%29.71 "Hg10 mi
9:50 AM28 °FSunny.12 mph80%29.71 "Hg10 mi
9:20 AM28 °FSunny.13 mph86%29.74 "Hg10 mi
8:50 AM28 °FSunny.14 mph86%29.74 "Hg10 mi
8:20 AM28 °FSunny.14 mph86%29.77 "Hg10 mi
7:50 AM28 °FClear.13 mph86%29.80 "Hg10 mi
7:20 AM28 °FClear.13 mph86%29.80 "Hg10 mi
6:50 AM28 °FClear.13 mph86%29.83 "Hg10 mi
6:20 AM28 °FClear.10 mph86%29.86 "Hg10 mi
5:50 AM28 °FClear.9 mph86%29.89 "Hg10 mi
5:20 AM28 °FClear.9 mph86%29.92 "Hg10 mi
4:20 AM27 °FClear.9 mph93%29.98 "Hg10 mi
3:50 AM27 °FClear.8 mph93%30.01 "Hg10 mi
3:20 AM27 °FClear.9 mph93%30.04 "Hg10 mi
2:50 AM27 °FClear.8 mph93%30.04 "Hg10 mi
2:20 AM27 °FClear.7 mph86%30.07 "Hg10 mi
1:50 AM25 °FClear.8 mph93%30.07 "Hg10 mi
1:20 AM27 °FClear.8 mph86%30.09 "Hg10 mi
12:50 AM27 °FClear.9 mph86%30.12 "Hg10 mi
12:20 AM27 °FClear.9 mph80%30.12 "Hg10 mi
11:50 PM
Dec 26
27 °FClear.9 mph86%30.15 "Hg10 mi
11:20 PM25 °FClear.9 mph93%30.15 "Hg10 mi
10:50 PM27 °FClear.9 mph86%30.18 "Hg10 mi
10:20 PM25 °FClear.8 mph93%30.18 "Hg10 mi
9:50 PM23 °FClear.8 mph93%30.21 "Hg10 mi
9:20 PM25 °FClear.8 mph93%30.21 "Hg10 mi
8:50 PM27 °FClear.8 mph93%30.24 "Hg10 mi
8:20 PM27 °FClear.9 mph93%30.24 "Hg10 mi
7:50 PM27 °FClear.8 mph93%30.24 "Hg10 mi
7:20 PM27 °FClear.7 mph93%30.27 "Hg10 mi
6:50 PM28 °FClear.6 mph93%30.27 "Hg10 mi
6:20 PM30 °FClear.6 mph80%30.27 "Hg10 mi
5:50 PM30 °FClear.3 mph86%30.27 "Hg10 mi
5:20 PM30 °FClear.1 mph86%30.27 "Hg10 mi
4:20 PM32 °FClear.2 mph80%30.30 "Hg10 mi
3:50 PM34 °FPassing clouds.6 mph75%30.30 "HgN/A
3:20 PM34 °FPassing clouds.7 mph75%30.30 "HgN/A
Weather by CustomWeather, © 2014

See weather overviewHow to use our weather pages